Tracking 30995 objects as of 5-Jul-2025
HD Live streaming from Space Station
objects crossing your sky now

THOR BURNER 2A DEB

Track THOR BURNER 2A DEB now!
10-day predictions


NORAD ID: 28593
Int'l Code: 1974-015E
Perigee: 726.4 km
Apogee: 811.2 km
Inclination: 99.1 °
Period: 100.1 minutes
Semi major axis: 7139 km
RCS: 0.0137 m2 (small)
Launch date: March 16, 1974
Source: United States (US)
Launch site: AIR FORCE WESTERN TEST RANGE (AFWTR)

Note: This is SATELLITE DEBRIS
Your satellite tracking list
COSMOS 1275 DEB
Track 1 satellite(s)




NASA's NSSDC Master Catalog

Two Line Element Set (TLE):
1 28593U 74015E   25186.53466522  .00001181  00000-0  39010-3 0  9996
2 28593  99.1057 209.7012 0059385  56.5826 304.1020 14.39047386 65256
Source of the keplerian elements: AFSPC